Location: Coustellet
(43.8833°N, 5.1833°E)
Time: 13:08:56
(UTC+00:00)

Daily predictions for brighter satellites

Satellite Brightness Start Highest point End
(mag) Time Altitude Azimuth Time Altitude Azimuth Time Altitude Azimuth
NOSS 3-1 (C) 4.1 17:04:55 10° NNW 17:12:24 68° NE 17:21:04 10° SE
COSMO-SKYMED 1 3.3 17:10:47 10° NNE 17:14:43 33° E 17:18:38 10° SSE
Cosmos 1937 Rocket 4.0 17:09:54 10° S 17:14:53 43° ESE 17:19:54 10° NNE
Okean 1-7 Rocket 4.0 17:12:20 10° SSW 17:16:53 72° W 17:21:28 10° N
OE (NEXTSAT) 4.3 17:14:24 10° WNW 17:17:52 88° S 17:21:18 10° ESE
Aureole 3 2.5 17:14:58 10° N 17:18:00 68° E 17:20:58 10° SSE
USA 290 3.6 17:19:36 10° NNE 17:21:58 19° ENE 17:24:20 10° ESE
NOSS 2-1 (C) 3.2 17:19:35 10° SW 17:22:55 67° NW 17:26:20 10° NNE
Cosmos 1833 Rocket 3.2 17:20:39 10° NNW 17:25:53 38° ENE 17:31:04 10° SE
H-2A R/B 2.9 17:23:22 10° ESE 17:27:32 27° ENE 17:31:50 10° N
Lacrosse 5 4.3 17:23:47 10° WNW 17:27:59 27° SW 17:32:10 10° S
Meteor 1-21 Rocket 4.2 17:22:55 10° S 17:28:26 87° E 17:34:04 10° N
NOSS 2-1 (D) 3.4 17:25:34 10° SW 17:28:52 57° NW 17:32:16 10° NNE
Cosmos 1939 Rocket 2.8 17:25:34 10° SSE 17:29:37 68° ENE 17:33:38 10° N
Helios 1A Rocket 4.3 17:27:18 10° ESE 17:30:09 18° ENE 17:33:01 10° NNE
H-2A R/B 2.5 17:27:38 10° N 17:31:59 64° WNW 17:36:12 10° SSW
Cosmos 2344 4.4 17:23:07 10° NNW 17:32:14 59° NE 17:44:52 10° SE
Cosmos 1602 Rocket 3.5 17:28:22 10° S 17:32:40 65° E 17:37:02 10° NNE
Cosmos 44 4.1 17:28:08 10° SW 17:32:50 52° NW 17:37:52 10° NNE
USA 229 DEB 3.9 17:26:33 10° NNW 17:33:51 67° NE 17:41:30 10° SE
Cosmos 2026 Rocket 4.1 17:27:59 10° SSE 17:33:52 51° E 17:39:53 10° NNE
USA 229 3.9 17:26:40 10° NNW 17:33:57 66° NE 17:41:37 10° SE
CZ-3B R/B 2.4 17:32:15 10° NW 17:34:52 45° NE 17:42:06 10° ESE
Feng Yun 1-1 Rocket 4.2 17:29:32 10° SSE 17:34:56 64° ENE 17:40:30 10° N
SeaSat 1 4.4 17:31:24 10° N 17:35:25 25° NW 17:39:25 10° WSW
SJ 16-02 3.1 17:31:55 10° SW 17:35:53 33° WNW 17:39:53 10° N
CSL-04 DEB 4.3 17:32:32 10° NNE 17:36:39 75° ESE 17:40:38 10° S
Cosmos 2112 Rocket 4.1 17:33:27 10° NNW 17:38:42 85° WSW 17:43:53 10° SSE
YAOGAN 1 3.3 17:35:17 10° SE 17:39:02 29° ENE 17:42:48 10° N
Cosmos 990 Rocket 4.2 17:34:03 10° SSW 17:39:14 73° WNW 17:44:26 10° NNE
H-2A R/B 4.3 17:37:15 10° SSW 17:41:04 35° W 17:45:02 10° NNW
Cosmos 1844 Rocket 4.2 17:36:02 10° WSW 17:41:11 35° NW 17:46:22 10° N
Cosmos 1689 Rocket 3.4 17:41:34 17° ENE 17:42:31 20° E 17:44:41 10° SSE
Cosmos 1553 Rocket 4.5 17:37:05 10° N 17:42:59 38° ENE 17:48:46 10° SE
Aureole 3 Rocket 2.8 17:40:32 10° N 17:43:45 47° E 17:47:46 10° SSE
COSMOS 2406 3.3 17:39:38 10° NNW 17:45:22 60° ENE 17:51:02 10° SE
Cosmos 2082 Rocket 2.9 17:40:33 10° N 17:45:37 31° NE 17:50:38 10° ESE
Cosmos 1703 3.5 17:42:51 10° SSW 17:46:43 72° W 17:50:35 10° N
Cosmos 1825 Rocket 4.1 17:43:44 10° SSE 17:47:46 37° E 17:51:50 10° NNE
IRS-1C Rocket 4.1 17:43:18 10° SSE 17:48:27 61° ENE 17:53:38 10° N
X-37B 0.5 17:46:16 10° WNW 17:49:28 88° NNE 17:51:36 19° ESE
NOSS 3-1 (A) 4.1 17:42:01 10° NW 17:49:34 72° NE 17:58:17 10° SE
ISS -2.0 17:49:31 10° NW 17:52:12 21° N 17:53:50 16° NE
Cosmos 1812 Rocket 3.5 17:48:39 10° N 17:53:03 90° W 17:57:23 10° S
Okean O Rocket 3.2 17:50:17 10° SSW 17:54:25 39° W 17:58:34 10° NNW
CZ-4 R/B 1.4 17:54:42 10° SSE 17:58:37 52° ENE 18:02:30 10° N
Iridium 4 Rocket 3.4 17:56:03 10° N 18:01:24 73° E 18:06:14 10° S
ERS-2 2.1 17:59:17 10° NNE 18:02:53 58° ESE 18:06:27 10° S
SKYMED 2 3.7 17:58:33 10° N 18:02:54 75° WNW 18:07:13 10° SSW
CSL-04 Rocket 4.2 17:58:08 10° SE 18:03:05 37° ENE 18:08:06 10° N
Okean-O 2.6 18:01:46 10° SSE 18:06:06 58° ENE 18:10:27 10° N
S3M 4.3 18:03:46 10° N 18:09:31 41° ENE 18:15:15 10° SE
USA 234 4.5 18:05:52 15° NE 18:10:06 28° N 18:15:27 10° NW
Cosmos 1340 3.8 18:06:43 10° SSW 18:10:18 44° WNW 18:13:55 10° N
Cosmos 1346 Rocket 2.6 18:06:52 10° S 18:10:45 67° E 18:14:41 10° NNE
Cosmos 1655 Rocket 4.4 18:05:25 10° SSE 18:11:04 38° E 18:16:44 10° NNE
Cosmos 2278 Rocket 2.1 18:05:29 10° SSW 18:11:08 83° ESE 18:16:52 10° NNE
Cosmos 1953 Rocket 3.7 18:10:04 10° SSE 18:14:13 46° E 18:17:58 12° NNE
CZ-2C R/B 3.5 18:09:09 10° S 18:14:35 73° WSW 18:20:20 10° NNW
SWARM A 4.2 18:13:47 10° SSE 18:17:01 55° E 18:18:52 23° NNE
Cosmos 2292 Rocket 3.8 18:14:16 10° SSE 18:19:01 44° E 18:20:41 28° NE
Cosmos 1892 4.3 18:15:59 10° SSE 18:17:22 19° SE 18:17:22 19° SE
SAR-Lupe-4 3.4 18:17:50 14° NNE 18:20:50 80° ESE 18:24:23 10° S
Cosmos 44 Rocket 3.6 18:16:42 10° S 18:21:24 48° ESE 18:23:19 32° ENE
Cosmos 405 4.0 18:19:48 10° NNW 18:23:13 47° W 18:26:34 10° S
ARGOS 3.1 18:22:51 10° SSE 18:28:09 64° ENE 18:33:29 10° N
DMSP B5D1-3 4.4 18:24:32 10° NNE 18:29:39 70° ESE 18:34:44 10° S
Cosmos 1869 4.1 18:27:43 10° N 18:30:11 33° NNE 18:30:11 33° NNE
PSLV R/B 4.2 18:29:58 10° N 18:34:11 69° WNW 18:38:21 10° SSW
Cosmos 372 Rocket 4.2 18:29:37 10° SSW 18:34:48 74° WNW 18:39:58 11° NNE
SAR-Lupe-1 4.4 18:34:04 16° N 18:36:52 64° WNW 18:40:24 10° SSW
CZ-4B R/B 4.0 18:35:10 10° NNW 18:37:36 19° WNW 18:39:59 10° WSW
Cosmos 468 4.5 18:33:33 10° NNW 18:38:46 60° ENE 18:41:13 31° SE
CZ-2C R/B 2.8 18:33:52 10° NNE 18:39:21 54° E 18:44:50 10° S
Cosmos 494 Rocket 4.2 18:37:45 10° N 18:42:29 44° ENE 18:42:29 44° ENE
Cosmos 2150 Rocket 3.8 18:38:54 10° S 18:44:00 69° ESE 18:45:58 38° NE
TRAILBLAZER 4.5 18:40:57 10° NNW 18:45:37 79° NE 18:46:35 55° SE
Cosmos 1048 Rocket 3.8 18:42:37 10° NNW 18:47:46 70° ENE 18:49:36 40° SE
Cosmos-2242 4.2 18:43:47 10° NNW 18:47:51 43° W 18:51:57 10° SSW
Cosmos 2297 4.0 18:46:23 10° S 18:51:24 46° ESE 18:51:24 46° ESE
SL-08 RB Rocket 3.5 18:59:18 68° SSE 18:59:53 89° E 19:04:23 10° NNW
CSL-04 Debris 4.4 18:56:40 10° S 19:02:01 68° WSW 19:07:25 10° NNW
Helios 1A Rocket 4.1 19:01:03 10° S 19:04:59 42° W 19:08:57 10° NNW
H-2A R/B 3.2 19:01:59 10° SSW 19:06:44 41° W 19:11:39 10° NNW
Cosmos 1125 Rocket 3.3 19:03:27 10° SSW 19:08:40 83° ESE 19:08:41 83° ESE
Cosmos 1809 Rocket 4.4 19:02:53 10° S 19:09:01 85° W 19:15:14 10° N
Cosmos 1833 Rocket 4.2 19:04:42 10° NW 19:09:43 34° WSW 19:14:43 10° SSW
Cosmos 2298 Rocket 4.3 19:06:06 10° SSW 19:11:22 65° WNW 19:13:35 35° N
Cosmos 2266 Rocket 3.9 19:06:56 10° S 19:13:11 87° W 19:19:22 10° N
NOSS 2-2 (C) 4.5 19:15:01 10° NNW 19:20:07 64° NNE 19:20:07 64° NNE
X-37B 3.8 19:23:08 10° W 19:23:54 15° W 19:23:54 15° W
Cosmos 1943 Rocket 3.9 19:21:44 10° S 19:23:18 19° S 19:23:18 19° S
ISS -0.5 19:26:35 10° NW 19:26:49 11° NW 19:26:49 11° NW
Cosmos 2082 Rocket 3.2 19:24:27 10° NW 19:29:51 44° WSW 19:33:42 18° S
Cosmos 2315 Rocket 4.2 19:41:04 10° NNW 19:46:33 64° NW 19:46:33 64° NW
ATLAS 2AS CENTAUR R/B 4.4 19:43:48 10° NNW 19:48:21 21° N 19:48:21 21° N
USA 234 4.2 19:53:13 35° N 19:53:13 35° N 19:57:56 10° NW
CZ-4C R/B 4.4 19:53:54 10° NNW 19:56:58 21° N 19:56:58 21° N
ATLAS 5 CENTAUR R/B 4.5 20:21:05 10° SW 20:39:15 58° SW 20:39:15 58° SW
